User: anonymous   Login
Location: Luz Observatory
(34.5000°N, 117.2833°W)
Time: 01:15:29
(UTC-07:00)
Language:

Okean 3 Rocket - Orbit

View from above orbital plane
View from above orbital plane
View from above satellite
View from above satellite

Ground track
Ground track

The orbit data is extracted from the following two-line orbital elements,

1 21398U 91039B   16118.99733315  .00000155  00000-0  17521-4 0  9993
2 21398  82.5228 252.6448 0023003 102.9300  36.1158 14.79599345342511
Epoch (UTC): 27 April 2016 23:56:09
Eccentricity: 0.0023003
inclination: 82.5228°
perigee height: 614 km
apogee height: 647 km
right ascension of ascending node: 252.6448°
argument of perigee: 102.9300°
revolutions per day: 14.79599345
mean anomaly at epoch: 36.1158°
orbit number at epoch: 34251

The dashed part of the orbit path shows where the satellite is in the earth's shadow,  

DLR